Location: Newark
(36.1358°N, 115.1208°W)
Time: 09:54:03
(UTC+00:00)

ISS - Visible Passes

Search period start: 17 January 2021 00:00
Search period end: 27 January 2021 00:00
Orbit: 418 x 419 km, 51.6° (Epoch: 17 January)

Date Brightness Start Highest point End Pass type
(mag) Time Alt. Az. Time Alt. Az. Time Alt. Az.
17 Jan -1.9 02:56:48 10° SW 02:58:37 29° WSW 02:58:37 29° WSW visible
18 Jan -3.6 02:09:10 10° SW 02:12:27 56° SE 02:13:16 41° E visible
19 Jan -2.6 01:21:51 10° SSW 01:24:48 29° SE 01:27:46 10° ENE visible
19 Jan -1.6 02:58:41 10° W 03:00:49 24° NW 03:00:49 24° NW visible
20 Jan -2.8 02:10:31 10° WSW 02:13:43 42° NW 02:15:18 24° NNE visible
21 Jan -3.7 01:22:35 10° SW 01:25:56 78° NW 01:29:18 10° NE visible
21 Jan -0.9 03:01:34 10° NW 03:02:40 12° NW 03:02:40 12° NW visible
22 Jan -1.5 02:12:49 10° WNW 02:15:12 18° NNW 02:17:00 13° N visible
23 Jan -2.0 01:24:22 10° W 01:27:16 26° NNW 01:30:10 10° NNE visible
25 Jan -1.2 01:27:08 10° NW 01:28:47 13° NNW 01:30:28 10° N visible
